Location: Argonnex
(45.9500°N, 6.1333°E)
Time: 20:21:54
(UTC+00:00)

THORAD AGENA D DEB - Visible Passes

Search period start: 02 March 2024 00:00
Search period end: 12 March 2024 00:00
Orbit: 707 x 801 km, 100.0° (Epoch: 02 March)

Date Brightness Start Highest point End Pass type
(mag) Time Alt. Az. Time Alt. Az. Time Alt. Az.
02 Mar ? 03:50:59 10° SE 03:55:34 36° ENE 04:00:16 10° N visible
02 Mar ? 05:29:40 10° SSW 05:34:09 32° W 05:38:46 10° NW visible
02 Mar ? 19:13:02 10° N 19:17:16 25° WNW 19:21:27 10° WSW visible
03 Mar ? 03:12:40 10° E 03:16:03 18° NE 03:19:28 10° NNE visible
03 Mar ? 04:49:00 10° S 04:54:01 74° WSW 04:59:13 10° NNW visible
03 Mar ? 18:32:31 10° N 18:37:37 51° WNW 18:42:39 10° SW visible
04 Mar ? 04:09:16 10° SE 04:14:08 50° ENE 04:19:08 10° N visible
04 Mar ? 17:52:27 10° NNE 17:57:43 74° ESE 18:02:56 10° S visible
04 Mar ? 19:32:07 10° NNW 19:35:43 19° WNW 19:39:16 10° W visible
05 Mar ? 03:30:26 10° ESE 03:34:28 24° ENE 03:38:36 10° N visible
05 Mar ? 05:07:46 10° S 05:12:42 52° WSW 05:17:47 10° NNW visible
05 Mar ? 18:51:20 10° N 18:56:09 37° WNW 19:00:54 10° SW visible
06 Mar ? 02:53:05 10° ENE 02:55:03 12° NE 02:57:03 10° NNE visible
06 Mar ? 04:27:38 10° SSE 04:32:40 71° ENE 04:37:52 10° NNW visible
06 Mar ? 18:11:02 10° NNE 18:16:19 80° WNW 18:21:31 10° SSW visible
06 Mar ? 19:51:24 10° NNW 19:54:03 14° NW 19:56:42 10° W visible
07 Mar ? 03:48:22 10° SE 03:52:53 33° ENE 03:57:30 10° N visible
07 Mar ? 05:26:41 10° SSW 05:31:22 37° W 05:36:11 10° NNW visible
07 Mar ? 19:10:10 10° N 19:14:34 28° WNW 19:18:55 10° WSW visible
08 Mar ? 03:10:12 10° E 03:13:20 17° NE 03:16:30 10° NNE visible
08 Mar ? 04:46:06 10° SSE 04:51:12 84° WSW 04:56:27 10° NNW visible
08 Mar ? 18:29:39 10° N 18:34:49 58° WNW 18:39:53 10° SW visible
08 Mar ? 20:11:32 10° NW 20:12:18 10° NW 20:13:03 10° WNW visible
09 Mar ? 04:06:26 10° SE 04:11:17 45° ENE 04:16:14 10° N visible
09 Mar ? 19:29:03 10° N 19:32:52 21° WNW 19:36:40 10° WSW visible
10 Mar ? 03:27:43 10° ESE 03:31:36 22° ENE 03:35:31 10° N visible
10 Mar ? 05:04:40 10° S 05:09:43 60° WSW 05:14:54 10° NNW visible
10 Mar ? 18:48:16 10° N 18:53:12 42° WNW 18:58:01 10° SW visible
11 Mar ? 02:50:49 10° ENE 02:52:08 11° NE 02:53:28 10° NE visible
11 Mar ? 04:24:36 10° SSE 04:29:40 62° ENE 04:34:50 10° N visible
11 Mar ? 18:07:58 10° NNE 18:13:15 90° E 18:18:24 10° SSW visible
11 Mar ? 19:48:04 10° NNW 19:51:05 16° NW 19:54:04 10° W visible
